Погода в Славянске

Украина / Донецкая область     48˚51′08″N   37˚36′21″E
темп.,
°C
ветер,
м/с
пор.,
м/с
влажн.,
%
обл.,
%
осадки,
мм/ч
давл.,
гПа
погр.,
м
6 декабря, вс
вс623:00−5˚в612460 0.0 1036398
02:00−6˚в612500 0.0 1037366
05:00−7˚в713560 0.0 1037387
08:00−6˚в612620 0.0 1037430
11:00−4˚в712580 0.0 1037548
14:00−4˚в712530 0.0 1036597
17:00−6˚в714660 0.0 1037543
20:00−7˚в713710 0.0 1037534
7 декабря, пн
пн723:00−7˚в713700 0.0 1037518
02:00−8˚в713690 0.0 1037502
05:00−8˚в815680 0.0 1036503
08:00−8˚в815620 0.0 1036502
11:00−4˚в813490 0.0 1035586
14:00−4˚в813480 0.0 1034585
17:00−5˚в814570 0.0 1035519
20:00−6˚в714630 0.0 1035478
8 декабря, вт
вт823:00−7˚в715650 0.0 1034452
02:00−7˚в715670 0.0 1033445
05:00−7˚в814650 0.0 1032435
08:00−7˚в816610 0.0 1032452
11:00−4˚в813460 0.0 1032551
14:00−2˚в713430 0.0 1031610
17:00−4˚в715520 0.0 1031499
20:00−5˚в715580 0.0 1031457
9 декабря, ср
ср923:00−5˚в713600 0.0 1031437
02:00−6˚в713620 0.0 1031425
05:00−6˚в713670 0.0 1031427
08:00−6˚в713700 0.0 1031465
11:00−3˚вюв7126373 0.0 1032639
14:00−1˚в7116285 0.0 1031696
17:00−3˚в6126482 0.0 1031531
20:00−3˚вюв6126689 0.0 1031542
10 декабря, чт
чт1023:00−2˚в6117195 0.0 1031463
02:00−4˚в5117991 0.0 1032364
05:00−4˚в5108327 0.0 1031334
08:00−4˚в6127914 0.0 1031363
11:00вюв610681 0.0 1031474
14:00+1˚в69651 0.0 1030553
17:00−3˚в511700 0.0 1031349
20:00−3˚в6107014 0.0 1030394